Regional Weather Roundup
Issued by NWS

Home | Current Version | Previous Version | Text Only | Print | Product List | Glossary On
Versions: 1 2 3 4 5 6 7 8 9 10 11 12 13 14 15 16 17 18 19 20 21 22 23 24 25 26 27 28 29 30 31 32 33 34 35 36 37 38 39 40 41 42 43 44 45 46 47 48 49 50
000
ASUS43 KLSX 312307
RWRMO

WEATHER SUMMARY FOR MISSOURI
NATIONAL WEATHER SERVICE SPRINGFIELD MO
600 PM CDT THU JUL 31 2014

NOTE: "FAIR" INDICATES FEW OR NO CLOUDS BELOW 12,000 FEET WITH NO
       SIGNIFICANT WEATHER AND/OR OBSTRUCTIONS TO VISIBILITY.
       CURRENT SKY AND/OR WEATHER CONDITIONS ARE NOT AVAILABLE FOR
       CHILLICOTHE AND FARMINGTON.

MOZ001>031-035>038-043-044-053-054-010000-
...NORTHERN AND WESTERN MISSOURI...

CITY           SKY/WX    TMP DP  RH WIND       PRES   REMARKS
KANSAS CTY INT PTSUNNY   82  54  37 W5        30.06S
KANSAS C DTWN  SUNNY     84  55  36 E6        30.04S
LEE`S SUMMIT   SUNNY     82  54  37 E5        30.06F
ST JOSEPH      SUNNY     81  57  43 VRB5      30.05S
CHILLICOTHE      N/A     84  55  36 VRB5      30.06S
KIRKSVILLE     SUNNY     82  54  37 W5        30.07S

$$
MOZ066>068-077>081-088>096-101>105-010000-
...SOUTHWEST MISSOURI...

CITY           SKY/WX    TMP DP  RH WIND       PRES   REMARKS
SPRINGFIELD    MOSUNNY   77  64  64 S9        30.06F
JOPLIN         MOSUNNY   80  63  55 E6        30.05F

$$
MOZ032>034-039>042-045>050-055>058-069>072-010000-
...CENTRAL MISSOURI...

CITY           SKY/WX    TMP DP  RH WIND       PRES   REMARKS
COLUMBIA       SUNNY     84  53  34 N6        30.05S
JEFFERSON CITY SUNNY     86  54  33 N3        30.02F
ROLLA          MOSUNNY   84  51  31 E6        30.04F
SEDALIA        SUNNY     83  57  41 N6        30.06S
OSAGE BEACH      N/A     84  57  39 NE8       30.04S

$$
MOZ051-052-059>065-010000-
...EAST CENTRAL MISSOURI...

CITY           SKY/WX    TMP DP  RH WIND       PRES   REMARKS
ST LOUIS INTL  MOSUNNY   84  58  40 E5        30.05S
SPIRIT OF STL  PTSUNNY   83  56  39 E5        30.02F
ST CHARLES     SUNNY     83  57  41 NE6       30.03F

$$
MOZ072>076-082>087-097>100-106>115-010000-
...SOUTH CENTRAL AND SOUTHEAST MISSOURI...

CITY           SKY/WX    TMP DP  RH WIND       PRES   REMARKS
CAPE GIRARDEAU MOSUNNY   77  64  64 SW6       30.07S
FARMINGTON     MOSUNNY   81  63  54 S10       30.07F
POPLAR BLUFF   PTSUNNY   75  64  68 S9        30.06F
WEST PLAINS    CLOUDY    73  65  75 S5        30.09S

$$


USA.gov is the U.S. government's official web portal to all federal, state and local government web resources and services.